STARLINK-32142, 60291

Orbit data source: Space-Track

STARLINK-32142, 60291 is a payload satellite owned by SpaceX/Seattle (US) in LEO that was launched on Sun, 28 Jul 2024 UTC via an FALCON 9 launch vehicle from the Air Force Eastern Test Range (AFETR). Payload-class satellites include a variety of spacecraft equipped with specific instruments for various scientific and technological missions. These include communications satellites like Starlink; space stations such as the ISS; scientific satellites like the Hubble; Earth observation satellites from companies like Planet Labs, Umbra, and HawkEye 360; GPS; miniature CubeSats for education and research; and military/defense satellites.

Loading next visibility...
Identifier
60291, 2024-132P
Orbit
LEO
Last TLE update
15 hours ago
Origin
Manufacturer
SpaceX/Seattle
Mission
Operational spacecraft
Bus & Motor
STARLINK V2M, Unknown motor
Mass
730 kg wet, ~700 kg dry
Launch date (UTC)
2024-07-28 (1 year ago)
Launch vehicle
FALCON 9
Launch site
Air Force Eastern Test Range (AFETR)
Object type
Payload
Rocket body
Debris
Shape & HBR
Unknown
Radar Cross Section
Large (>1 m²)

Expand to show TLE details & history

TLE from 15 hours ago
0 STARLINK-32142
1 60291U 24132P   25199.33650935 -.00000931  00000-0 -19330-4 0  9995
2 60291  53.1595  60.7072 0001184  90.1693 269.9443 15.30184207 55684
Epoch: 2025-07-18T08:04Z
TLE epoch observation values (Epoch: 2025-07-18T08:04:34.407Z)
Latitude
-0.00007°
Longitude
3.17436°
Altitude
476.163 km
Speed
7.629 km/s
True Right ascension
04h 02m 49s
True Declination
0° 00' 00"
Sunlit
Object was in daylight at epoch
Visualization orbit readout
Latitude
-51.89103°
Longitude
-71.58281°
Altitude
494.061 km
Speed
7.617 km/s
Apparent Right ascension
23h 40m 23s
Apparent Declination
-46° 15' 44"
Sunlit
Object is in full shadow
Visualization observer readout
Local Sidereal Time
12:12:05
Azimuth
140.284° SSE
Elevation
-81.419°
Doppler factor
1
Orbital elements
Apogee altitude
476.33 km
Perigee altitude
474.707 km
Semi-major axis
6,853.656 km
Eccentricity
0.00012
Inclination
53.1595°
RAAN
60.7072°
Arg. of periapsis
90.1693°
True anomaly
269.93073°
Mean anomaly
269.9443°
Eccentric anomaly
269.93752°
Mean motion
3.82525 °/min
Orbital period
94.11 mins
BSTAR
-0.00001933
Loading maneuver chart data...
Loading SW <> Apogee altitude chart data...
Loading historical data...
Loading historical data...
Loading historical data...
Loading historical data...
Loading historical data...
Loading historical data...
Loading historical data...
|